Theta_e
320 315 317 317 317 318 320 320 319 320 320 322 323 323 338 337 336 334 330 328 328 325 326 327 331 335 337 340 341 345 346 343 342 341 340 329 334 345 344 346 346 346 343 341
317 318 318 319 320 321 320 321 320 321 320 319 320 321 331 335 333 331 328 325 325 325 325 325 325 328 332 335 338 339 343 344 338 332 330 328 334 338 332 346 346 345 344 343
317 319 320 321 320 321 319 319 320 322 320 319 318 316 336 333 330 328 326 324 323 324 325 323 321 321 325 328 332 337 340 341 343 346 346 342 346 347 347 346 344 344 344 347
320 321 321 319 322 319 320 320 320 320 317 318 316 315 333 333 330 327 325 323 323 324 323 323 323 323 323 325 329 332 334 337 338 339 340 341 343 344 342 342 343 344 343 342
320 321 321 320 321 322 322 320 320 320 318 315 315 313 319 331 331 328 326 325 321 319 320 322 325 326 325 324 326 327 327 329 329 331 333 336 337 334 333 334 337 338 339 340
321 322 322 321 320 321 320 320 318 315 313 315 316 315 322 331 330 327 326 326 324 321 321 322 323 325 325 324 325 324 324 325 323 322 322 323 325 325 327 327 330 333 336 337
321 320 321 322 321 318 317 316 316 316 316 318 318 324 324 330 328 327 325 326 325 322 320 319 320 323 324 323 322 321 320 320 319 319 318 317 315 315 316 316 318 325 330 333
322 323 322 322 320 320 320 316 316 319 318 320 321 332 328 328 327 326 326 324 324 322 321 319 319 320 320 319 319 318 318 317 316 315 313 313 312 311 311 312 312 311 314 321
321 322 321 321 321 320 320 317 316 318 318 317 320 328 327 326 326 325 324 324 322 321 321 320 317 319 318 318 318 317 317 315 313 310 309 309 308 307 306 306 307 310 311 313
321 321 321 322 321 320 318 317 318 314 321 323 319 326 327 329 327 325 325 324 324 323 322 322 320 320 319 318 318 316 315 313 310 310 311 311 311 311 310 309 308 307 308 309
318 317 319 319 320 320 316 318 318 314 317 319 320 320 323 323 326 326 325 326 326 325 323 323 321 320 319 319 318 316 316 312 310 311 312 312 312 311 310 309 308 307 307 306
320 318 321 323 320 321 320 320 316 317 318 319 320 319 322 321 321 325 326 326 326 325 324 323 322 320 321 320 319 316 315 313 312 313 313 313 313 312 312 310 310 310 309 308
318 318 320 319 319 319 322 323 322 315 314 318 317 318 319 321 321 321 321 321 323 324 325 324 322 322 321 321 320 316 315 314 312 313 314 314 313 312 312 312 312 310 311 311
319 316 318 318 320 320 321 321 319 320 318 318 318 319 318 318 318 319 317 319 324 324 325 324 323 322 322 322 321 318 314 314 312 315 315 314 314 313 313 312 312 312 311 311
313 315 319 319 321 321 321 321 320 320 317 320 318 317 315 313 314 317 320 323 322 322 324 324 324 322 322 322 321 318 317 316 316 315 315 315 314 314 314 313 312 312 311 311
315 318 321 322 322 321 322 320 320 319 319 315 313 315 314 320 322 322 322 321 321 321 321 323 323 323 323 322 321 318 318 317 317 317 315 315 315 315 315 313 312 312 312 311
318 317 320 321 322 321 319 319 319 318 315 314 314 313 318 320 321 322 322 322 321 321 321 322 321 323 323 322 319 319 319 318 317 316 315 315 314 314 314 313 312 312 312 311
317 316 316 318 319 322 317 319 319 321 320 316 317 316 319 320 321 320 320 320 321 322 324 323 322 321 321 321 320 319 319 317 316 314 313 313 313 312 312 312 311 311 310 310
316 315 317 317 317 318 320 319 318 317 321 318 316 316 317 319 319 320 319 319 319 320 321 321 320 320 318 318 317 316 316 315 314 314 313 312 312 312 311 310 310 310 310 309
316 314 316 315 318 320 318 319 317 316 319 319 317 316 315 316 313 313 320 319 318 318 317 317 315 316 316 316 315 315 315 313 314 313 311 310 310 309 308 308 308 309 308 307
315 315 316 312 313 315 318 320 318 318 316 319 315 316 315 313 315 317 319 318 319 318 316 314 314 313 313 313 311 312 312 311 311 310 309 308 307 306 306 304 305 308 308 306
317 315 316 313 314 318 319 318 319 317 318 314 313 313 313 313 313 317 317 316 316 315 315 314 313 311 312 312 311 309 310 309 308 307 307 307 306 305 304 306 306 306 306 306
321 315 317 315 315 316 318 317 318 318 314 312 312 313 313 313 315 315 315 315 314 314 313 310 310 310 309 308 307 307 307 306 306 305 304 303 304 305 305 305 305 306 305 305
314 316 317 315 315 314 315 314 314 313 313 312 313 313 313 313 314 314 314 313 311 309 310 310 309 309 308 307 306 305 304 303 303 302 303 303 302 303 303 304 304 304 304 304
313 314 313 313 314 314 313 313 312 312 312 311 312 312 312 312 313 313 311 309 310 309 308 308 307 307 307 305 303 304 304 304 304 303 303 301 300 300 302 303 303 303 302 302
314 312 311 312 314 313 313 312 312 312 312 312 312 312 313 312 311 310 309 308 308 307 307 306 305 304 304 304 304 304 305 304 303 303 302 300 300 301 301 302 302 302 301 301
Wind_Speed
2 5 2 7 6 7 3 2 5 6 6 5 2 3 13 18 22 16 20 28 28 29 28 26 26 24 17 13 8 7 19 22 26 26 29 30 28 26 29 35 38 32 30 31
6 4 8 8 4 2 7 6 6 4 8 5 3 6 8 11 12 15 17 21 23 23 23 24 25 26 24 20 15 6 3 7 15 21 23 25 26 27 28 32 31 34 36 35
7 7 5 2 3 5 4 7 4 1 5 2 2 4 6 9 16 17 19 20 21 21 22 22 23 22 20 20 18 12 8 4 5 7 12 20 25 26 30 28 30 30 30 32
4 2 4 5 4 4 4 1 5 5 5 2 4 3 1 7 6 11 14 17 19 19 19 19 18 20 21 20 16 14 12 11 10 9 10 9 9 14 15 18 22 29 31 28
3 3 1 6 3 3 4 1 3 1 3 4 6 3 3 9 2 1 7 13 15 15 15 14 13 14 15 15 15 14 13 13 14 14 13 12 11 11 12 13 18 23 21 18
3 3 4 5 3 4 2 5 8 6 4 2 2 5 5 5 6 4 7 9 11 12 11 11 10 8 7 9 10 11 13 14 16 17 17 16 14 12 12 12 13 11 11 12
5 6 4 4 5 8 9 7 4 5 4 6 5 4 2 8 12 12 14 13 10 8 8 8 8 6 6 5 5 8 11 14 16 17 16 17 16 16 17 18 15 13 10 6
4 4 5 4 4 4 3 6 5 4 3 5 6 1 3 10 21 22 20 16 10 6 5 5 6 6 3 1 2 6 10 11 12 13 13 14 15 16 17 17 18 16 14 12
3 2 4 5 2 4 3 2 5 4 2 2 1 3 4 6 8 14 20 17 13 9 7 4 4 3 2 2 2 6 7 8 8 9 11 13 14 15 16 16 13 11 10 9
1 2 2 4 3 2 5 4 3 3 2 3 4 4 4 10 11 8 13 20 17 15 15 13 10 7 5 1 3 4 3 3 5 8 11 13 16 18 18 17 17 15 12 9
3 4 5 3 2 1 4 2 5 4 4 4 2 5 5 8 12 14 19 27 25 21 19 16 14 12 7 2 3 3 1 1 3 4 6 11 13 16 19 20 21 20 17 14
1 4 1 6 6 3 2 3 4 5 5 1 4 5 4 10 16 24 28 29 26 23 20 20 18 14 10 5 2 1 2 2 2 5 7 10 13 17 18 20 22 23 21 18
4 2 3 8 6 7 4 4 2 4 3 4 4 5 3 7 11 14 14 22 27 27 24 23 21 18 13 9 4 4 4 3 2 5 7 9 13 14 15 18 20 21 21 20
7 3 6 6 4 3 4 7 4 4 3 4 6 7 10 5 7 15 7 3 12 16 19 22 23 20 16 12 6 7 4 4 4 5 9 10 14 14 15 17 18 21 19 20
5 4 3 4 3 2 2 6 9 4 6 5 6 5 8 8 5 6 21 21 16 9 13 18 25 25 20 14 7 6 11 8 7 10 12 13 15 16 17 16 18 18 20 25
3 2 2 2 3 5 6 9 10 9 11 5 5 1 5 17 23 22 16 15 13 11 9 5 15 24 22 22 15 12 10 10 14 18 14 14 19 20 19 14 15 20 22 23
4 5 4 4 3 4 6 5 5 3 6 4 5 2 4 8 15 17 15 12 10 9 8 6 2 8 19 21 18 12 11 15 15 11 11 15 14 13 11 11 15 16 17 21
6 6 3 4 2 3 6 6 11 13 7 8 8 6 9 13 15 13 11 11 10 8 6 5 4 5 8 9 10 11 10 10 4 1 2 7 10 11 12 16 18 19 21 25
9 5 2 4 4 5 7 3 3 4 3 3 6 7 10 12 12 10 9 6 8 7 7 5 3 4 7 8 6 7 8 7 6 10 11 13 15 16 17 19 21 25 27 27
6 5 5 3 3 5 4 4 5 6 1 1 6 4 5 6 3 3 10 6 6 6 8 9 8 7 5 4 4 9 11 15 13 14 13 15 18 21 24 24 24 22 22 22
3 3 5 3 3 6 3 7 1 4 6 2 9 9 9 4 2 1 9 7 7 8 12 11 7 3 3 2 6 10 15 13 14 17 19 20 22 25 27 30 24 18 19 20
6 6 3 3 2 6 6 1 5 7 7 12 8 7 9 5 5 4 8 9 9 9 7 4 7 9 8 11 11 11 11 10 13 15 18 22 25 27 25 22 17 16 17 18
1 6 5 7 5 4 3 1 8 10 14 8 8 9 5 5 6 3 4 5 7 6 6 4 0 4 2 2 2 6 9 12 16 20 22 22 18 13 12 13 14 15 14 16
5 2 3 4 2 10 16 13 13 10 10 7 9 6 3 3 2 2 6 6 1 2 3 2 2 5 9 10 13 16 14 14 14 13 13 14 16 16 16 13 13 13 16 17
4 1 4 1 4 11 10 11 9 5 3 4 5 2 3 3 4 3 5 2 4 3 3 3 1 4 9 13 9 7 9 12 13 13 13 18 20 17 14 13 13 13 16 16
5 4 3 5 8 6 6 4 2 2 8 10 5 3 4 3 8 10 9 7 9 5 1 2 7 10 8 7 11 12 11 13 13 13 20 18 18 16 11 12 10 12 16 15
Wind_Direction
345 59 241 252 210 201 240 6 20 15 0 98 114 41 116 104 99 99 112 122 126 115 105 91 85 81 77 86 100 181 207 217 229 241 245 260 244 259 262 274 266 260 262 267
20 218 237 209 184 53 33 56 356 341 4 74 32 53 104 85 86 100 89 81 85 86 82 75 70 66 64 62 62 60 312 249 248 239 242 259 255 255 268 272 268 259 256 258
169 227 194 123 42 78 31 80 67 96 309 50 108 0 102 68 85 87 84 84 77 72 70 63 50 46 45 43 42 46 53 31 0 312 285 260 260 262 261 274 275 266 255 255
161 257 132 62 69 89 76 350 53 22 61 261 77 267 141 110 60 68 76 73 72 66 61 56 51 46 42 41 35 32 36 35 29 13 346 336 325 312 326 322 314 304 304 302
216 128 108 87 153 96 183 42 24 323 20 45 352 70 292 115 92 106 100 84 74 72 63 62 57 51 47 47 43 33 29 40 38 30 26 13 9 9 2 349 329 320 328 328
239 249 165 143 93 52 317 27 17 35 77 3 221 180 211 195 177 152 135 117 98 89 81 77 63 62 61 43 35 22 17 18 22 11 9 11 18 15 5 9 17 11 355 347
0 352 356 105 76 17 64 58 355 354 7 223 297 71 246 123 139 159 166 165 144 116 86 76 81 89 75 52 12 5 8 2 5 13 15 19 19 14 18 19 14 9 15 4
124 3 357 17 111 153 72 134 150 224 229 274 335 146 201 154 162 164 163 160 155 140 95 88 83 85 92 131 315 353 0 15 25 30 33 29 26 24 24 25 24 24 24 22
134 163 17 75 102 101 312 9 177 127 322 74 204 69 45 158 165 165 167 171 179 180 185 167 179 172 181 219 345 357 11 35 41 48 51 52 52 48 42 36 30 26 22 25
175 119 343 19 40 328 149 173 41 7 201 239 286 208 218 189 186 188 186 194 200 207 210 209 206 200 199 225 346 1 41 44 76 72 62 52 42 34 30 26 28 28 23 15
79 88 294 44 65 353 6 38 65 115 139 167 311 280 235 180 189 194 203 207 209 216 217 216 210 209 214 214 340 302 290 112 99 79 38 14 19 16 16 20 23 18 13 11
15 130 236 231 271 184 144 130 114 117 276 131 152 269 234 187 188 196 211 213 219 222 226 221 211 216 231 228 257 272 209 199 276 326 350 15 13 15 20 23 23 21 18 15
177 43 33 344 354 5 45 12 109 123 83 200 141 263 248 248 206 214 223 211 222 223 219 221 214 227 227 231 274 299 224 184 91 60 18 17 3 360 6 11 11 17 18 13
110 111 156 194 181 218 321 325 311 147 126 224 212 249 285 257 238 246 294 165 207 221 221 224 225 229 230 238 288 284 270 220 225 318 327 351 353 348 348 349 355 1 8 3
101 142 188 236 279 6 287 297 301 292 227 178 247 234 271 283 317 54 106 104 107 115 204 226 227 222 217 221 236 326 268 254 272 291 320 328 339 338 335 327 340 348 348 351
15 202 146 292 303 337 306 284 269 274 276 166 141 213 28 79 83 80 86 92 84 70 66 172 221 215 211 221 232 270 238 244 272 274 300 319 317 317 317 308 330 330 335 339
131 133 113 250 253 335 319 256 238 207 18 140 74 304 97 69 84 93 89 87 93 92 91 96 106 225 237 233 269 240 244 256 274 255 286 302 308 317 311 312 317 319 321 326
143 134 132 203 50 236 239 302 96 94 49 65 91 66 109 109 100 90 75 83 91 101 103 100 134 196 225 242 247 225 238 216 224 211 265 290 306 314 312 307 309 315 321 325
170 133 137 151 188 290 319 334 188 144 47 60 94 93 120 115 97 81 101 85 108 104 112 107 103 151 154 153 137 184 217 215 251 293 299 300 304 310 311 312 315 311 312 317
99 102 130 134 156 226 241 319 131 87 166 199 106 115 94 88 69 253 165 156 165 178 166 164 162 164 188 208 265 275 287 298 285 286 295 308 314 312 313 315 313 312 314 316
79 56 152 145 191 283 249 308 185 131 221 106 84 84 66 69 354 180 185 179 175 170 162 155 154 141 130 136 305 294 292 296 304 306 306 310 314 316 317 312 299 303 308 315
157 147 196 107 150 274 200 87 174 177 145 129 101 96 91 65 26 136 150 148 167 178 187 244 289 303 285 282 261 269 283 289 292 294 304 309 309 312 313 315 317 307 308 307
131 170 184 168 215 237 207 164 166 163 127 100 109 110 93 96 97 115 171 196 193 206 242 286 102 293 90 120 226 291 305 303 306 310 312 318 327 324 325 331 328 325 320 315
349 119 118 92 53 82 112 106 124 138 127 121 135 135 113 83 101 203 185 172 189 322 128 132 165 279 296 316 321 318 313 315 323 337 341 334 328 331 321 321 328 327 320 313
221 113 160 288 118 104 104 112 118 113 125 170 153 129 95 70 132 155 156 144 109 118 120 151 222 304 313 323 338 342 335 333 329 333 335 335 330 330 320 316 323 317 316 326
180 188 158 216 185 157 162 143 176 168 151 149 161 167 148 143 139 133 130 117 149 144 153 316 332 329 328 307 313 314 316 322 330 334 337 336 339 334 324 327 333 334 342 331